Location: Pardubice
(50.0618°N, 15.7556°E)
Time: 09:09:35
(UTC+02:00)

ISS - Pass Details

Date: 23 May 2018
Orbit: 402 x 406 km, 51.6° (Epoch: 22 June)

Event Time Altitude Azimuth Distance (km) Brightness Sun altitude
Rises 02:09:34 0° 287° (WNW) 2,321 0.0 -17.4°
Reaches altitude 10° 02:11:39 10° 285° (WNW) 1,460 -1.1 -17.3°
Maximum altitude 02:14:54 72° 201° (SSW) 428 -4.0 -17.2°
Drops below altitude 10° 02:18:09 10° 117° (ESE) 1,454 -1.1 -17.0°
Sets 02:20:14 0° 115° (ESE) 2,311 0.0 -16.9°
